FW9258 Weather Reports


time (UTC)temp
C
wind
direction
speed
KPH
gust
KPH
rain 1hr
cm
rain 24hr
cm
rain mn
cm
humidity
%
barometer
mb
20260502195015 10 334 1.6 3.2 0.00 0.64 0.64 93 1012.2
20260502194534 10 333 1.6 3.2 0.00 0.64 0.64 93 1012.3
20260502194110 10 328 0.0 1.6 0.00 0.64 0.64 93 1012.3
20260502193519 10 0 0.0 3.2 0.00 0.64 0.64 93 1012.3
20260502193036 10 316 0.0 3.2 0.00 0.64 0.64 93 1012.3
20260502192515 10 310 0.0 3.2 0.00 0.64 0.64 93 1012.4
20260502192015 10 311 0.0 3.2 0.03 0.64 0.64 93 1012.4
20260502191534 10 319 0.0 4.8 0.03 0.64 0.64 93 1012.4
20260502191019 10 319 3.2 4.8 0.03 0.64 0.64 93 1012.5
20260502190517 10 315 0.0 1.6 0.05 0.64 0.64 93 1012.5
20260502190034 10 316 0.0 1.6 0.05 0.64 0.64 93 1012.6
20260502185515 10 316 0.0 1.6 0.08 0.64 0.64 93 1012.6
20260502185015 10 0 0.0 0.0 0.08 0.64 0.64 93 1012.7
20260502184532 10 0 0.0 0.0 0.08 0.64 0.64 93 1012.8
20260502184015 10 0 0.0 0.0 0.10 0.64 0.64 92 1012.7
20260502183517 10 0 0.0 0.0 0.13 0.64 0.64 92 1012.7
20260502183035 10 0 0.0 0.0 0.15 0.64 0.64 92 1012.8
20260502182516 11 0 0.0 3.2 0.18 0.64 0.64 92 1012.8
20260502182015 11 0 0.0 3.2 0.18 0.61 0.61 92 1012.8
20260502181532 11 334 0.0 3.2 0.20 0.61 0.61 92 1012.9
20260502181015 11 332 0.0 1.6 0.23 0.61 0.61 92 1013.0
20260502180516 11 0 0.0 1.6 0.20 0.58 0.58 92 1013.1
20260502170519 11 0 0.0 1.6 0.15 0.36 0.36 92 1013.6
20260502164015 11 0 0.0 1.6 0.15 0.28 0.28 92 1013.6
20260502163515 11 0 0.0 0.0 0.15 0.28 0.28 92 1013.6
20260502163041 11 0 0.0 1.6 0.15 0.25 0.25 92 1013.7
20260502162515 11 0 0.0 3.2 0.15 0.23 0.23 91 1013.7
20260502162015 11 0 0.0 4.8 0.13 0.20 0.20 91 1013.7
20260502161554 11 352 1.6 4.8 0.15 0.20 0.20 91 1013.8
20260502161021 11 0 0.0 4.8 0.13 0.18 0.18 91 1013.7
20260502160515 11 304 0.0 4.8 0.15 0.18 0.18 91 1013.8
20260502152015 11 0 0.0 0.0 0.08 0.08 0.08 90 1014.1
20260502151531 12 328 0.0 0.0 0.05 0.05 0.05 91 1014.1
20260502151015 12 0 0.0 1.6 0.05 0.05 0.05 91 1014.2
20260502150518 12 0 0.0 1.6 0.03 0.03 0.03 90 1014.3
20260502130516 14 0 0.0 6.4 0.00 0.00 0.00 79 1015.1
20260502123516 13 314 3.2 9.7 0.00 0.00 0.00 81 1015.5
20260502123106 14 349 6.4 11.3 0.00 0.00 0.00 80 1015.6
20260502122516 14 77 6.4 11.3 0.00 0.00 0.00 81 1015.7
20260502122022 14 164 4.8 9.7 0.00 0.00 0.00 79 1015.7
20260502121532 14 142 1.6 6.4 0.00 0.00 0.00 79 1015.8
20260502121016 14 322 3.2 6.4 0.00 0.00 0.00 77 1015.8
20260502120519 14 317 0.0 8.0 0.00 0.00 0.00 80 1015.9
20260502115520 14 113 1.6 8.0 0.00 0.00 0.00 81 1016.0
20260502115018 13 329 3.2 8.0 0.00 0.00 0.00 82 1016.1
20260502114532 13 338 4.8 9.7 0.00 0.00 0.00 82 1016.1
20260502114015 13 59 6.4 11.3 0.00 0.00 0.00 81 1016.2
20260502113515 13 110 6.4 11.3 0.00 0.00 0.00 82 1016.2
20260502113034 13 93 4.8 11.3 0.00 0.00 0.00 82 1016.4
20260502112515 13 175 3.2 9.7 0.00 0.00 0.00 82 1016.5
20260502112016 13 89 4.8 12.9 0.00 0.00 0.00 82 1016.6
20260502111533 13 273 6.4 12.9 0.00 0.00 0.00 81 1016.7
20260502111021 13 297 0.0 14.5 0.00 0.00 0.00 84 1016.8
20260502110519 13 54 6.4 14.5 0.00 0.00 0.00 83 1016.8
20260502110045 13 57 8.0 14.5 0.00 0.00 0.00 83 1017.0
20260502105517 12 105 8.0 12.9 0.00 0.00 0.00 83 1017.1
20260502105018 12 106 6.4 12.9 0.00 0.00 0.00 85 1017.3
20260502104535 12 122 8.0 14.5 0.00 0.00 0.00 85 1017.3
20260502104015 12 114 8.0 14.5 0.00 0.00 0.00 84 1017.4
20260502103515 12 148 4.8 12.9 0.00 0.00 0.00 84 1017.3
20260502103034 12 67 4.8 11.3 0.00 0.00 0.00 84 1017.4
20260502102515 12 121 6.4 11.3 0.00 0.00 0.00 84 1017.3
20260502102026 12 316 4.8 11.3 0.00 0.00 0.00 85 1017.3
20260502101531 12 316 4.8 11.3 0.00 0.00 0.00 84 1017.4
20260502101020 12 117 6.4 12.9 0.00 0.00 0.00 84 1017.3
20260502100516 12 350 6.4 12.9 0.00 0.00 0.00 85 1017.2
20260502091016 12 155 6.4 14.5 0.00 0.00 0.00 84 1017.7
20260502090516 12 349 4.8 11.3 0.00 0.00 0.00 86 1017.6
20260502071535 10 51 4.8 9.7 0.00 0.00 0.00 93 1018.1
20260502071019 10 302 4.8 11.3 0.00 0.00 0.00 93 1018.0
20260502070518 10 103 4.8 11.3 0.00 0.00 0.00 93 1018.1
20260502070035 10 305 3.2 11.3 0.00 0.00 0.00 93 1018.0
20260502065518 10 313 1.6 8.0 0.00 0.00 0.00 93 1018.0
20260502065016 10 219 3.2 9.7 0.00 0.00 0.00 93 1018.0
20260502064535 10 287 3.2 9.7 0.00 0.00 0.00 93 1018.0
20260502064015 10 17 3.2 6.4 0.00 0.00 0.00 93 1017.9
20260502063519 10 352 1.6 4.8 0.00 0.00 0.00 93 1017.9
20260502063039 10 335 0.0 1.6 0.00 0.00 0.00 93 1017.9
20260502062515 10 329 0.0 1.6 0.00 0.00 0.00 93 1018.0
20260502062016 10 0 0.0 1.6 0.00 0.00 0.00 93 1018.1
20260502061530 10 0 0.0 3.2 0.00 0.00 0.00 93 1018.1
20260502061015 10 0 0.0 3.2 0.00 0.00 0.00 93 1018.1
20260502060515 10 326 0.0 4.8 0.00 0.00 0.00 93 1018.1
20260502060037 10 0 0.0 4.8 0.00 0.00 0.00 94 1018.2
20260502055516 10 316 0.0 4.8 0.00 0.00 0.00 94 1018.3
20260502055016 10 316 1.6 6.4 0.00 0.00 0.00 94 1018.3
20260502054535 10 285 1.6 9.7 0.00 0.00 0.00 94 1018.3
20260502054017 10 231 1.6 9.7 0.00 0.00 0.00 94 1018.4
20260502053516 10 0 3.2 9.7 0.00 0.00 0.00 94 1018.4
20260502053035 10 314 3.2 9.7 0.00 0.00 0.00 94 1018.4
20260502052517 10 328 3.2 6.4 0.00 0.00 0.00 94 1018.3
20260502052015 10 300 3.2 6.4 0.00 0.00 0.00 94 1018.3
20260502051535 10 323 3.2 11.3 0.00 0.00 0.00 94 1018.3
20260502051015 10 351 3.2 11.3 0.00 0.00 0.00 94 1018.3
20260502050516 10 301 1.6 8.0 0.00 0.00 0.00 94 1018.3
20260502050036 10 296 1.6 6.4 0.00 0.00 0.00 94 1018.3
20260502045520 10 265 1.6 4.8 0.00 0.00 0.00 94 1018.3
20260502045016 10 293 1.6 4.8 0.00 0.00 0.00 94 1018.3
20260502044536 10 303 0.0 1.6 0.00 0.00 0.00 94 1018.3
20260502044015 10 328 0.0 0.0 0.00 0.00 0.00 93 1018.3
20260502043515 10 0 0.0 4.8 0.00 0.00 0.00 93 1018.3
20260502043032 10 0 0.0 4.8 0.00 0.00 0.00 94 1018.3
20260502042516 10 337 0.0 3.2 0.00 0.00 0.00 94 1018.3
20260502042018 10 0 0.0 0.0 0.00 0.00 0.00 93 1018.3
20260502041534 10 0 0.0 0.0 0.00 0.00 0.00 94 1018.3
20260502041017 10 0 0.0 0.0 0.00 0.00 0.00 93 1018.3
20260502040515 10 0 0.0 0.0 0.00 0.00 0.00 94 1018.4
20260502040035 10 0 0.0 0.0 0.00 0.00 0.00 93 1018.4
20260502035515 10 0 0.0 0.0 0.00 0.00 0.00 93 1018.4
20260502035015 10 0 0.0 0.0 0.00 0.00 0.00 93 1018.4
20260502034530 10 0 0.0 0.0 0.00 0.00 0.00 93 1018.4
20260502034016 10 0 0.0 0.0 0.00 0.00 0.00 93 1018.4
20260502033515 10 0 0.0 0.0 0.00 0.00 0.00 93 1018.5
20260502033035 10 0 0.0 0.0 0.00 0.00 0.00 93 1018.6
20260502032516 10 0 0.0 0.0 0.00 0.00 0.00 93 1018.7
20260502032016 10 0 0.0 0.0 0.00 0.00 0.00 93 1018.6
20260502031534 10 0 0.0 0.0 0.00 0.00 0.00 93 1018.7
20260502031016 10 0 0.0 0.0 0.00 0.00 0.00 93 1018.8
20260502030515 10 0 0.0 0.0 0.00 0.00 0.00 93 1018.9
20260502030033 10 0 0.0 0.0 0.00 0.00 0.00 93 1018.9
20260502025515 10 0 0.0 1.6 0.00 0.00 0.00 93 1018.9
20260502025015 10 0 0.0 1.6 0.00 0.00 0.00 93 1019.0
20260502024531 10 0 0.0 1.6 0.00 0.00 0.00 93 1019.1
20260502024015 10 0 0.0 1.6 0.00 0.00 0.00 93 1019.1
20260502023515 10 0 0.0 1.6 0.00 0.00 0.00 93 1019.2
20260502023030 10 0 0.0 0.0 0.00 0.00 0.00 93 1019.2
20260502022517 10 0 0.0 1.6 0.00 0.00 0.00 93 1019.3
20260502022015 10 0 0.0 1.6 0.00 0.00 0.00 93 1019.3
20260502021536 10 0 0.0 1.6 0.00 0.00 0.00 93 1019.3
20260502021016 10 0 0.0 0.0 0.00 0.00 0.00 93 1019.4
20260502020517 10 0 0.0 1.6 0.00 0.00 0.00 93 1019.5
20260502020034 10 0 0.0 1.6 0.00 0.00 0.00 93 1019.5
20260502015516 10 0 0.0 1.6 0.00 0.00 0.00 93 1019.6
20260502015016 10 0 0.0 1.6 0.00 0.00 0.00 93 1019.6
20260502014535 10 0 0.0 1.6 0.00 0.00 0.00 93 1019.6
20260502014015 10 0 0.0 0.0 0.00 0.00 0.00 93 1019.6
20260502013515 10 0 0.0 0.0 0.00 0.00 0.00 93 1019.7
20260502013031 10 0 0.0 0.0 0.00 0.00 0.00 93 1019.8
20260502012517 10 0 0.0 0.0 0.00 0.00 0.00 93 1019.9
20260502012019 10 0 0.0 0.0 0.00 0.00 0.00 93 1019.9
20260502011531 10 0 0.0 1.6 0.00 0.00 0.00 93 1020.0
20260502011016 10 0 0.0 1.6 0.00 0.00 0.00 93 1020.0
20260502010515 10 0 0.0 0.0 0.00 0.00 0.00 93 1020.0
20260502010047 10 0 0.0 0.0 0.00 0.00 0.00 93 1020.0
20260502005515 10 0 0.0 0.0 0.00 0.00 0.00 93 1020.1
20260502005015 10 0 0.0 1.6 0.00 0.00 0.00 93 1020.1
20260502004547 10 0 0.0 1.6 0.00 0.00 0.00 93 1020.2
20260502004015 10 0 0.0 1.6 0.00 0.00 0.00 93 1020.2
20260502003516 10 0 0.0 1.6 0.00 0.00 0.00 93 1020.2
20260502003031 10 0 0.0 1.6 0.00 0.00 0.00 93 1020.2
20260502002515 10 0 0.0 0.0 0.00 0.00 0.00 93 1020.2
20260502002016 10 0 0.0 0.0 0.00 0.00 0.00 93 1020.3
20260502001537 9 0 0.0 0.0 0.00 0.00 0.00 93 1020.4
20260502001016 9 0 0.0 0.0 0.00 0.00 0.00 93 1020.4
20260502000515 9 0 0.0 0.0 0.00 0.00 0.00 92 1020.4
20260502000035 10 0 0.0 0.0 0.00 0.00 0.00 93 1020.4
20260501235518 10 0 0.0 0.0 0.00 0.00 0.00 93 1020.5
20260501235017 9 0 0.0 0.0 0.00 0.00 0.00 93 1020.5
20260501234535 9 0 0.0 0.0 0.00 0.00 0.00 93 1020.5
20260501234020 9 0 0.0 0.0 0.00 0.00 0.00 93 1020.5
20260501233515 9 0 0.0 0.0 0.00 0.00 0.00 93 1020.6
20260501233032 9 0 0.0 0.0 0.00 0.00 0.00 93 1020.6
20260501232518 8 0 0.0 0.0 0.00 0.00 0.00 93 1020.6
20260501232015 8 0 0.0 0.0 0.00 0.00 0.00 93 1020.8
20260501231532 8 0 0.0 0.0 0.00 0.00 0.00 91 1020.7
20260501231015 8 0 0.0 0.0 0.00 0.00 0.00 91 1020.7
20260501230519 8 0 0.0 0.0 0.00 0.00 0.00 91 1020.7
20260501230031 9 0 0.0 0.0 0.00 0.00 0.00 92 1020.7
20260501225515 9 0 0.0 0.0 0.00 0.00 0.00 92 1020.7
20260501225016 9 0 0.0 0.0 0.00 0.00 0.00 92 1020.8
20260501224533 9 0 0.0 0.0 0.00 0.00 0.00 91 1020.7
20260501224016 10 0 0.0 0.0 0.00 0.00 0.00 91 1020.8
20260501223518 10 0 0.0 0.0 0.00 0.00 0.00 92 1020.8
20260501223030 10 0 0.0 1.6 0.00 0.00 0.00 92 1020.9
20260501222516 10 0 0.0 3.2 0.00 0.00 0.00 92 1020.8
20260501222017 10 0 0.0 3.2 0.00 0.00 0.00 92 1020.9
20260501221533 10 0 0.0 1.6 0.00 0.00 0.00 92 1021.0
20260501221016 10 300 0.0 3.2 0.00 0.00 0.00 92 1021.0
20260501220517 10 0 0.0 6.4 0.00 0.00 0.00 92 1021.0
20260501220037 10 297 1.6 6.4 0.00 0.00 0.00 92 1021.0
20260501215515 10 297 1.6 4.8 0.00 0.03 0.00 92 1021.0
20260501215016 10 302 0.0 3.2 0.00 0.03 0.00 92 1021.1
20260501214532 10 300 0.0 3.2 0.00 0.03 0.00 92 1021.1
20260501214015 10 0 0.0 1.6 0.00 0.03 0.00 92 1021.1
20260501213514 10 307 0.0 1.6 0.00 0.03 0.00 92 1021.0
20260501213045 10 307 0.0 1.6 0.00 0.03 0.00 92 1021.1
20260501212515 10 0 0.0 1.6 0.00 0.03 0.00 92 1021.1
20260501212016 10 0 0.0 1.6 0.00 0.03 0.00 92 1021.2
20260501211530 9 0 0.0 0.0 0.00 0.03 0.00 92 1021.1
20260501211015 9 0 0.0 0.0 0.00 0.03 0.00 92 1021.1
20260501210515 9 0 0.0 0.0 0.00 0.03 0.00 92 1021.1
20260501210040 9 0 0.0 0.0 0.00 0.03 0.00 92 1021.0
20260501205522 9 0 0.0 0.0 0.00 0.03 0.00 92 1021.1
20260501205016 8 0 0.0 1.6 0.00 0.03 0.00 91 1021.1
20260501204536 8 0 0.0 1.6 0.00 0.03 0.00 91 1021.0
20260501204016 8 0 0.0 0.0 0.00 0.03 0.00 91 1021.0
20260501203515 8 0 0.0 0.0 0.00 0.03 0.00 91 1021.0
20260501203030 8 0 0.0 0.0 0.00 0.03 0.00 91 1021.0
20260501202517 8 0 0.0 1.6 0.00 0.03 0.00 90 1020.9
20260501202015 8 0 0.0 1.6 0.00 0.03 0.00 90 1020.9
20260501201533 9 304 0.0 1.6 0.00 0.03 0.00 90 1020.9
20260501201015 9 0 0.0 0.0 0.00 0.03 0.00 90 1020.9
20260501200515 9 0 0.0 0.0 0.00 0.03 0.00 90 1020.8
20260501200035 9 0 0.0 1.6 0.00 0.03 0.00 90 1020.8
20260501195520 10 0 0.0 1.6 0.00 0.03 0.00 90 1020.9